Pascagoula, MS

10:27 AM CDT on April 24, 2017 (GMT -0500)
Lott International

Weather History for KPQL - November, 2012

Change the Weather History Date:

Saturday, November 3, 2012

  Actual Average Record
Temperature  
Mean Temperature 66 °F -  
Max Temperature 82 °F 73 °F 85 °F (1975)
Min Temperature 51 °F 53 °F 30 °F (1954)
Cooling Degree Days 2    
Growing Degree Days 16 (Base 50)    
Moisture  
Dew Point 59 °F    
Average Humidity 90    
Maximum Humidity 100    
Minimum Humidity 52    
Precipitation  
Precipitation 0.00 in - - ()
Sea Level Pressure  
Sea Level Pressure 30.09 in    
Wind  
Wind Speed 1 mph (SW)    
Max Wind Speed 9 mph    
Max Gust Speed -    
Visibility 4 miles    
Events Fog    
Averages and records for this station are not official NWS values.
T = Trace of Precipitation, MM = Missing Value Source: NWS Daily Summary

Daily Weather History Graph

Daily Weather History Graph

Search for Another Location

Airport or City:

Trip Planner

Search our weather history database for the weather conditions in past years. The results will help you decide how hot, cold, wet, or windy it might be!

Date:

Astronomy

Nov. 03, 2012 Rise Set
Actual Time 7:10 AM CDT 6:04 PM CDT
Civil Twilight 6:45 AM CDT 6:29 PM CDT
Nautical Twilight 6:17 AM CDT 6:57 PM CDT
Astronomical Twilight 5:48 AM CDT 7:26 PM CDT
Moon 9:51 PM CDT (11/3) 11:07 AM CDT (11/3)
Length of Visible Light 11h 43m
Length of Day
10h 53m
Waning Gibbous, 80% of the Moon is Illuminated
Nov 3
Waning Gibbous
Nov 6
Last Quarter
Nov 13
New
Nov 20
First Quarter
Nov 28
Full

Hourly Weather History & Observations

Time (CDT) Temp. Heat Index Dew Point Humidity Pressure Visibility Wind Dir Wind Speed Gust Speed Precip Events Conditions
12:53 AM 64.0 °F - 63.0 °F 96% 30.07 in 9.0 mi Calm Calm - N/A   Clear
1:53 AM 64.0 °F - 62.1 °F 93% 30.07 in 10.0 mi Calm Calm - N/A   Clear
2:36 AM 59.0 °F - 57.2 °F 94% 30.06 in 1.8 mi Calm Calm - N/A   Clear
2:43 AM 57.2 °F - 57.2 °F 100% 30.06 in 0.5 mi Calm Calm - N/A Fog Fog
2:53 AM 57.9 °F - 57.0 °F 97% 30.06 in 0.2 mi Calm Calm - N/A Fog Fog
3:22 AM 57.2 °F - 55.4 °F 94% 30.06 in 0.2 mi Calm Calm - N/A Fog Fog
3:45 AM 55.4 °F - 53.6 °F 94% 30.06 in 0.5 mi Calm Calm - N/A Fog Fog
3:51 AM 55.4 °F - 53.6 °F 94% 30.07 in 0.2 mi Calm Calm - N/A Fog Fog
3:53 AM 55.9 °F - 54.0 °F 93% 30.07 in 0.2 mi Calm Calm - N/A Fog Fog
3:58 AM 55.4 °F - 53.6 °F 94% 30.07 in 0.5 mi Calm Calm - N/A Fog Fog
4:29 AM 55.4 °F - 55.4 °F 100% 30.07 in 0.2 mi Calm Calm - N/A Fog Fog
4:43 AM 55.4 °F - 53.6 °F 94% 30.08 in 0.5 mi Calm Calm - N/A Fog Fog
4:53 AM 55.0 °F - 54.0 °F 96% 30.09 in 0.2 mi Calm Calm - N/A Fog Fog
4:57 AM 53.6 °F - 53.6 °F 100% 30.08 in 0.5 mi Calm Calm - N/A Fog Fog
5:12 AM 55.4 °F - 55.4 °F 100% 30.08 in 0.2 mi Calm Calm - N/A Fog Fog
5:39 AM 53.6 °F - 53.6 °F 100% 30.09 in 0.2 mi Calm Calm - N/A Fog Fog
5:53 AM 54.0 °F - 54.0 °F 100% 30.10 in 0.5 mi Calm Calm - N/A Fog Fog
6:23 AM 53.6 °F - 53.6 °F 100% 30.10 in 0.2 mi Calm Calm - N/A Fog Fog
6:53 AM 54.0 °F - 53.1 °F 97% 30.12 in 0.5 mi Calm Calm - N/A Fog Fog
7:07 AM 53.6 °F - 53.6 °F 100% 30.11 in 0.2 mi Calm Calm - N/A Fog Fog
7:16 AM 51.8 °F - 51.8 °F 100% 30.12 in 0.5 mi Calm Calm - N/A Fog Fog
7:24 AM 51.8 °F - 51.8 °F 100% 30.12 in 0.2 mi Calm Calm - N/A Fog Fog
7:53 AM 55.0 °F - 55.0 °F 100% 30.13 in 0.5 mi Calm Calm - N/A Fog Fog
8:07 AM 57.2 °F - 57.2 °F 100% 30.13 in 2.0 mi Calm Calm - N/A   Overcast
8:31 AM 62.6 °F - 62.6 °F 100% 30.13 in 2.0 mi Calm Calm - N/A   Scattered Clouds
8:53 AM 64.9 °F - 64.0 °F 97% 30.14 in 2.0 mi Calm Calm - N/A   Clear
9:00 AM 66.2 °F - 64.4 °F 94% 30.14 in 5.0 mi NW 4.6 mph - N/A   Clear
9:53 AM 71.1 °F - 64.9 °F 81% 30.15 in 10.0 mi WNW 4.6 mph - N/A   Clear
10:53 AM 77.0 °F - 64.9 °F 66% 30.14 in 10.0 mi West 9.2 mph - N/A   Clear
11:53 AM 80.1 °F 81.7 °F 64.0 °F 58% 30.14 in 10.0 mi Variable 3.5 mph - N/A   Clear
12:53 PM 82.0 °F 83.1 °F 63.0 °F 52% 30.11 in 10.0 mi NW 3.5 mph - N/A   Clear
1:53 PM 81.0 °F 83.0 °F 66.0 °F 60% 30.09 in 10.0 mi SSW 8.1 mph - N/A   Partly Cloudy
2:53 PM 79.0 °F - 66.0 °F 64% 30.07 in 10.0 mi SSW 5.8 mph - N/A   Clear
3:53 PM 77.0 °F - 64.9 °F 66% 30.06 in 10.0 mi South 9.2 mph - N/A   Clear
4:53 PM 75.9 °F - 64.9 °F 69% 30.06 in 10.0 mi SSW 9.2 mph - N/A   Clear
5:53 PM 72.0 °F - 64.9 °F 78% 30.06 in 10.0 mi SSW 4.6 mph - N/A   Clear
6:53 PM 69.1 °F - 66.0 °F 90% 30.08 in 10.0 mi Calm Calm - N/A   Clear
7:53 PM 69.1 °F - 66.0 °F 90% 30.09 in 10.0 mi SW 3.5 mph - N/A   Clear
8:53 PM 68.0 °F - 64.0 °F 87% 30.10 in 10.0 mi SW 3.5 mph - N/A   Clear
9:53 PM 66.9 °F - 63.0 °F 87% 30.09 in 10.0 mi SW 3.5 mph - N/A   Clear
10:53 PM 66.9 °F - 64.0 °F 90% 30.09 in 10.0 mi SW 3.5 mph - N/A   Clear
11:53 PM 62.1 °F - 60.1 °F 93% 30.09 in 4.0 mi Calm Calm - N/A   Clear
11:58 PM 62.6 °F - 60.8 °F 94% 30.09 in 1.8 mi Calm Calm - N/A   Clear